OneWeb SL0559

operational
NORAD ID: 56060 Int'l Des: 2023-043 Owner: ONEWEBN Country: UK Constellation: oneweb
LEOCIRCULARPOLARONEWEB_TYPE

About OneWeb SL0559

Description loading...

Live Position

Loading 3D Globe...

Upcoming Passes

Altitude History

Altitude vs Time

uPlot chart will show altitude changes over time

Two-Line Element Set

1 56060U 23043Q 25350.32276136 .00000201 00000-0 45561-3 0 9991
2 56060 87.9220 280.4506 0001986 69.4094 290.7253 13.21824462134096
Epoch: Dec 16, 2025 • Age: 17 hours

Current Status

Altitude 1184.9 km
Velocity 7.26 km/s
Sub-Earth Point -15.43°S, 1.26°W
Launch Date Mar 26, 2023
Age 2.7 years
Type internet

Technical Details

Classification Payload
Mass 148.00 kg
Dry Mass 140.00 kg
Total Mass 148.00 kg
Length 1.30 m
Diameter 1.00 m
Span 5.00 m
Shape Trapezoid+2 pan
Manufacturer ONEWUS
Bus Type ARROW
Phase Status In Orbit
Owner/State ONEWEBN/UK

Large Constellations

Loading constellations...